FW4212 Weather Reports


Display with metric or nautical units.
time (UTC)temp
F
wind
direction
speed
MPH
gust
MPH
rain 1hr
in
rain 24hr
in
rain mn
in
humidity
%
barometer
mb
20260905193503 80 251 0.0 2.0 0.00 0.00 0.00 76 1012.3
20260905193113 80 251 0.0 2.0 0.00 0.00 0.00 75 1012.3
20260905192502 80 308 0.0 2.0 0.00 0.00 0.00 77 1012.2
20260905192003 79 275 0.0 2.0 0.00 0.00 0.00 77 1012.4
20260905191502 79 325 0.0 3.0 0.00 0.00 0.00 78 1012.5
20260905191002 79 247 0.0 3.0 0.00 0.00 0.00 79 1012.3
20260905190501 79 236 0.0 4.0 0.00 0.00 0.00 78 1012.2
20260905185501 79 304 1.0 2.0 0.00 0.00 0.00 78 1012.5
20260905185001 79 77 0.0 0.0 0.00 0.00 0.00 78 1012.0
20260905184504 79 77 0.0 0.0 0.00 0.00 0.00 81 1011.8
20260905184100 79 77 0.0 0.0 0.00 0.00 0.00 82 1011.8
20260905183600 80 77 0.0 0.0 0.00 0.00 0.00 79 1011.9
20260905183102 79 77 0.0 2.0 0.00 0.00 0.00 81 1011.7
20260905182559 80 77 0.0 2.0 0.00 0.00 0.00 81 1011.8
20260905182059 80 140 0.0 2.0 0.00 0.00 0.00 81 1011.9
20260905181558 80 275 0.0 1.0 0.00 0.00 0.00 83 1012.3
20260905181059 80 275 0.0 2.0 0.00 0.00 0.00 83 1012.7
20260905180558 79 275 0.0 2.0 0.00 0.00 0.00 83 1012.9
20260905180057 79 281 0.0 2.0 0.00 0.00 0.00 82 1012.9
20260905175558 80 260 0.0 2.0 0.00 0.00 0.00 82 1012.7
20260905175055 80 239 1.0 4.0 0.00 0.00 0.00 81 1012.8
20260905174558 81 217 2.0 4.0 0.00 0.00 0.00 76 1012.8
20260905174054 83 258 0.0 8.0 0.00 0.00 0.00 74 1013.4
20260905173554 85 234 1.0 8.0 0.00 0.00 0.00 70 1013.4
20260905173053 86 284 1.0 4.0 0.00 0.00 0.00 68 1013.6
20260905172554 87 294 1.0 3.0 0.00 0.00 0.00 64 1013.4
20260905172054 88 306 0.0 3.0 0.00 0.00 0.00 66 1013.2
20260905171559 89 302 0.0 3.0 0.00 0.00 0.00 67 1013.4
20260905171056 89 307 0.0 4.0 0.00 0.00 0.00 62 1013.4
20260905170553 89 213 1.0 3.0 0.00 0.00 0.00 65 1013.4
20260905170053 90 265 0.0 6.0 0.00 0.00 0.00 63 1013.3
20260905165552 91 244 2.0 6.0 0.00 0.00 0.00 63 1013.5
20260905165052 90 227 1.0 5.0 0.00 0.00 0.00 61 1013.6
20260905164552 90 286 0.0 5.0 0.00 0.00 0.00 64 1013.6
20260905164052 90 223 1.0 6.0 0.00 0.00 0.00 59 1013.5
20260905163552 90 255 1.0 7.0 0.00 0.00 0.00 59 1013.5
20260905163054 91 227 3.0 7.0 0.00 0.00 0.00 58 1013.5
20260905162554 91 343 0.0 8.0 0.00 0.00 0.00 65 1013.6
20260905162049 90 257 2.0 5.0 0.00 0.00 0.00 62 1013.7
20260905161549 90 239 2.0 5.0 0.00 0.00 0.00 62 1013.7
20260905161048 90 236 1.0 4.0 0.00 0.00 0.00 60 1013.8
20260905160548 90 227 0.0 4.0 0.00 0.00 0.00 60 1014.0
20260905160048 90 56 1.0 4.0 0.00 0.00 0.00 60 1014.1
20260905155546 90 239 0.0 4.0 0.00 0.00 0.00 62 1014.2
20260905155045 89 105 0.0 4.0 0.00 0.00 0.00 64 1014.2
20260905154557 89 247 1.0 5.0 0.00 0.00 0.00 64 1013.9
20260905154047 89 199 1.0 4.0 0.00 0.00 0.00 65 1014.0
20260905153544 89 242 0.0 2.0 0.00 0.00 0.00 64 1014.1
20260905153044 88 309 0.0 2.0 0.00 0.00 0.00 63 1013.9
20260905152544 89 268 0.0 4.0 0.00 0.00 0.00 63 1014.0
20260905152042 88 268 2.0 4.0 0.00 0.00 0.00 62 1013.9
20260905151541 88 44 0.0 1.0 0.00 0.00 0.00 66 1013.9
20260905151040 87 44 0.0 2.0 0.00 0.00 0.00 70 1013.9
20260905150541 87 198 0.0 4.0 0.00 0.00 0.00 69 1013.9
20260905150040 87 211 0.0 3.0 0.00 0.00 0.00 73 1014.1
20260905145538 87 266 0.0 3.0 0.00 0.00 0.00 71 1014.1
20260905145037 87 294 0.0 2.0 0.00 0.00 0.00 70 1013.9
20260905144536 86 227 0.0 2.0 0.00 0.00 0.00 73 1013.9
20260905144035 86 213 0.0 3.0 0.00 0.00 0.00 72 1013.9
20260905143534 86 211 0.0 3.0 0.00 0.00 0.00 75 1014.0
20260905143033 85 205 0.0 3.0 0.00 0.00 0.00 75 1014.2
20260905142532 85 210 1.0 3.0 0.00 0.00 0.00 77 1014.2
20260905142032 84 267 0.0 3.0 0.00 0.00 0.00 76 1014.2
20260905141530 84 241 0.0 3.0 0.00 0.00 0.00 78 1014.2
20260905141032 83 286 1.0 4.0 0.00 0.00 0.00 78 1014.1
20260905140532 83 225 0.0 5.0 0.00 0.00 0.00 79 1014.1
20260905140028 82 215 2.0 5.0 0.00 0.00 0.00 80 1014.1
20260905135527 83 229 1.0 4.0 0.00 0.00 0.00 80 1014.0
20260905135026 82 265 0.0 2.0 0.00 0.00 0.00 81 1014.2
20260905134535 82 328 0.0 2.0 0.00 0.00 0.00 82 1014.2
20260905134024 81 298 0.0 2.0 0.00 0.00 0.00 83 1014.3
20260905133524 81 339 0.0 1.0 0.00 0.00 0.00 82 1014.3
20260905133021 81 270 0.0 3.0 0.00 0.00 0.00 84 1014.4
20260905132520 80 282 0.0 3.0 0.00 0.00 0.00 85 1014.4
20260905132020 80 331 0.0 1.0 0.00 0.00 0.00 85 1014.5
20260905131518 79 292 0.0 3.0 0.00 0.00 0.00 87 1014.4
20260905131018 79 292 0.0 3.0 0.00 0.00 0.00 87 1014.5
20260905130520 78 297 0.0 0.0 0.00 0.00 0.00 88 1014.5
20260905130016 78 297 0.0 0.0 0.00 0.00 0.00 89 1014.7
20260905125513 77 302 0.0 1.0 0.00 0.00 0.00 89 1014.6
20260905125015 77 271 0.0 1.0 0.00 0.00 0.00 90 1014.6
20260905124516 76 308 0.0 1.0 0.00 0.00 0.00 92 1014.8
20260905124010 76 275 0.0 0.0 0.00 0.00 0.00 91 1014.7
20260905123509 75 275 0.0 0.0 0.00 0.00 0.00 92 1014.6
20260905123009 75 275 0.0 0.0 0.00 0.00 0.00 92 1014.6
20260905122513 74 275 0.0 0.0 0.00 0.00 0.00 94 1014.6
20260905122012 74 275 0.0 0.0 0.00 0.00 0.00 94 1014.6
20260905121509 74 275 0.0 1.0 0.00 0.00 0.00 95 1014.5
20260905121009 73 275 0.0 1.0 0.00 0.00 0.00 96 1014.4
20260905120509 72 275 0.0 0.0 0.00 0.00 0.00 96 1014.4
20260905120017 72 275 0.0 0.0 0.00 0.00 0.00 96 1014.3
20260905115507 72 275 0.0 1.0 0.00 0.00 0.00 97 1014.3
20260905115007 71 275 0.0 1.0 0.00 0.00 0.00 97 1014.2
20260905114506 71 275 0.0 0.0 0.00 0.00 0.00 97 1014.1
20260905114007 71 275 0.0 0.0 0.00 0.00 0.00 97 1014.1
20260905113507 70 275 0.0 0.0 0.00 0.00 0.00 96 1014.2
20260905113006 70 275 0.0 0.0 0.00 0.00 0.00 97 1014.1
20260905112506 70 275 0.0 0.0 0.00 0.00 0.00 97 1014.1
20260905112007 70 275 0.0 0.0 0.00 0.00 0.00 96 1014.0
20260905111506 70 275 0.0 0.0 0.00 0.00 0.00 96 1013.9
20260905111010 70 275 0.0 0.0 0.00 0.00 0.00 96 1014.0
20260905110506 70 275 0.0 0.0 0.00 0.00 0.00 96 1013.9
20260905110005 70 275 0.0 0.0 0.00 0.00 0.00 96 1013.6
20260905105508 70 275 0.0 2.0 0.00 0.00 0.00 97 1013.6
20260905105004 70 275 0.0 2.0 0.00 0.00 0.00 96 1013.6
20260905104503 70 275 0.0 1.0 0.00 0.00 0.00 96 1013.6
20260905104004 70 275 0.0 0.0 0.00 0.00 0.00 96 1013.6
20260905103503 70 275 0.0 0.0 0.00 0.00 0.00 96 1013.5
20260905103005 70 275 0.0 0.0 0.00 0.00 0.00 96 1013.4
20260905102502 70 275 0.0 0.0 0.00 0.00 0.00 96 1013.5
20260905102002 70 275 0.0 0.0 0.00 0.00 0.00 96 1013.5
20260905101502 70 275 0.0 0.0 0.00 0.00 0.00 96 1013.5
20260905101002 70 275 0.0 0.0 0.00 0.00 0.00 96 1013.5
20260905100502 71 275 0.0 0.0 0.00 0.00 0.00 96 1013.5
20260905100002 70 275 0.0 0.0 0.00 0.00 0.00 96 1013.4
20260905095503 71 275 0.0 0.0 0.00 0.00 0.00 96 1013.4
20260905095002 71 275 0.0 0.0 0.00 0.00 0.00 96 1013.4
20260905094500 71 275 0.0 1.0 0.00 0.00 0.00 96 1013.3
20260905094000 71 275 0.0 1.0 0.00 0.00 0.00 96 1013.3
20260905093600 70 275 0.0 0.0 0.00 0.00 0.00 96 1013.2
20260905093100 71 275 0.0 0.0 0.00 0.00 0.00 96 1013.2
20260905092602 71 275 0.0 0.0 0.00 0.00 0.00 95 1013.3
20260905092059 71 275 0.0 0.0 0.00 0.00 0.00 95 1013.3
20260905091603 71 275 0.0 0.0 0.00 0.00 0.00 96 1013.4
20260905091057 71 275 0.0 0.0 0.00 0.00 0.00 95 1013.3
20260905090557 71 275 0.0 0.0 0.00 0.00 0.00 95 1013.2
20260905090057 71 275 0.0 0.0 0.00 0.00 0.00 95 1013.3
20260905085556 71 275 0.0 0.0 0.00 0.00 0.00 95 1013.2
20260905085054 72 275 0.0 0.0 0.00 0.00 0.00 95 1013.3
20260905084556 72 275 0.0 0.0 0.00 0.00 0.00 95 1013.4
20260905084056 72 275 0.0 0.0 0.00 0.00 0.00 95 1013.6
20260905083555 72 275 0.0 0.0 0.00 0.00 0.00 95 1013.6
20260905083054 72 275 0.0 0.0 0.00 0.00 0.00 95 1013.7
20260905082553 72 275 0.0 0.0 0.00 0.00 0.00 95 1013.6
20260905082053 72 275 0.0 0.0 0.00 0.00 0.00 95 1013.5
20260905081553 72 275 0.0 0.0 0.00 0.00 0.00 95 1013.5
20260905081054 72 275 0.0 0.0 0.00 0.00 0.00 95 1013.6
20260905080551 72 275 0.0 0.0 0.00 0.00 0.00 95 1013.7
20260905080050 72 275 0.0 0.0 0.00 0.00 0.00 95 1013.9
20260905075548 72 275 0.0 0.0 0.00 0.00 0.00 95 1014.1
20260905075053 72 275 0.0 0.0 0.00 0.00 0.00 95 1014.4
20260905074549 72 275 0.0 0.0 0.00 0.00 0.00 95 1014.1
20260905074050 72 275 0.0 0.0 0.00 0.00 0.00 95 1014.1
20260905073548 72 275 0.0 0.0 0.00 0.00 0.00 94 1014.1
20260905073047 72 275 0.0 0.0 0.00 0.00 0.00 94 1014.0
20260905072547 72 275 0.0 0.0 0.00 0.00 0.00 94 1013.9
20260905072047 72 275 0.0 0.0 0.00 0.00 0.00 94 1013.9
20260905071548 72 275 0.0 0.0 0.00 0.00 0.00 94 1014.0
20260905071046 72 275 0.0 0.0 0.00 0.00 0.00 94 1014.1
20260905070546 72 275 0.0 0.0 0.00 0.00 0.00 94 1014.2
20260905070045 72 275 0.0 0.0 0.00 0.00 0.00 94 1014.2
20260905065544 72 275 0.0 0.0 0.00 0.00 0.00 94 1014.3
20260905065044 72 275 0.0 0.0 0.00 0.00 0.00 94 1014.3
20260905064547 72 275 0.0 0.0 0.00 0.00 0.00 94 1014.3
20260905064043 72 275 0.0 0.0 0.00 0.00 0.00 94 1014.4
20260905063542 72 275 0.0 0.0 0.00 0.00 0.00 94 1014.3
20260905063042 73 275 0.0 0.0 0.00 0.00 0.00 94 1014.4
20260905062542 73 275 0.0 0.0 0.00 0.00 0.00 94 1014.5
20260905062041 73 275 0.0 0.0 0.00 0.00 0.00 94 1014.6
20260905061544 73 275 0.0 0.0 0.00 0.00 0.00 94 1014.6
20260905061040 73 275 0.0 0.0 0.00 0.00 0.00 94 1014.7
20260905060541 73 275 0.0 0.0 0.00 0.00 0.00 94 1014.8
20260905060039 73 275 0.0 0.0 0.00 0.00 0.00 94 1014.8
20260905055537 73 275 0.0 0.0 0.00 0.00 0.00 93 1014.9
20260905055038 73 275 0.0 0.0 0.00 0.00 0.00 93 1015.0
20260905054536 73 275 0.0 0.0 0.00 0.00 0.00 93 1015.1
20260905054035 73 275 0.0 0.0 0.00 0.00 0.00 93 1015.1
20260905053535 73 275 0.0 0.0 0.00 0.00 0.00 93 1015.2
20260905053036 73 275 0.0 0.0 0.00 0.00 0.00 93 1015.2
20260905052534 73 275 0.0 0.0 0.00 0.00 0.00 92 1015.1
20260905052035 74 275 0.0 0.0 0.00 0.00 0.00 92 1015.2
20260905051534 74 275 0.0 0.0 0.00 0.00 0.00 92 1015.2
20260905051033 74 275 0.0 0.0 0.00 0.00 0.00 92 1015.3
20260905050534 74 275 0.0 0.0 0.00 0.00 0.00 91 1015.3
20260905050032 74 275 0.0 0.0 0.00 0.00 0.00 91 1015.4
20260905045531 74 275 0.0 0.0 0.00 0.00 0.00 90 1015.4
20260905045031 74 275 0.0 0.0 0.00 0.00 0.00 90 1015.4
20260905044530 74 275 0.0 0.0 0.00 0.00 0.00 90 1015.3
20260905044030 75 275 0.0 0.0 0.00 0.00 0.00 90 1015.3
20260905043529 75 275 0.0 0.0 0.00 0.00 0.00 90 1015.4
20260905043028 75 275 0.0 0.0 0.00 0.00 0.00 89 1015.4
20260905042526 75 275 0.0 0.0 0.00 0.00 0.00 89 1015.3
20260905042026 75 275 0.0 0.0 0.00 0.00 0.00 88 1015.2
20260905041526 75 275 0.0 0.0 0.00 0.00 0.00 88 1015.1
20260905041025 75 275 0.0 0.0 0.00 0.00 0.00 88 1015.1
20260905040529 75 275 0.0 0.0 0.00 0.00 0.00 88 1015.1
20260905040026 75 275 0.0 0.0 0.00 0.00 0.00 88 1015.2
20260905035526 76 275 0.0 0.0 0.00 0.00 0.00 87 1015.1
20260905035023 76 275 0.0 0.0 0.00 0.00 0.00 87 1015.0
20260905034527 76 275 0.0 0.0 0.00 0.00 0.00 88 1014.9
20260905034022 76 275 0.0 0.0 0.00 0.00 0.00 88 1014.9
20260905033524 76 275 0.0 0.0 0.00 0.00 0.00 88 1014.8
20260905033023 76 275 0.0 0.0 0.00 0.00 0.00 88 1014.8
20260905032523 76 275 0.0 0.0 0.00 0.00 0.00 87 1014.7
20260905032026 76 275 0.0 0.0 0.00 0.00 0.00 87 1014.6
20260905031528 76 275 0.0 0.0 0.00 0.00 0.00 86 1014.8
20260905031022 76 275 0.0 0.0 0.00 0.00 0.00 86 1014.9
20260905030522 76 275 0.0 0.0 0.00 0.00 0.00 86 1014.8
20260905030029 76 275 0.0 0.0 0.00 0.00 0.00 86 1014.7
20260905025521 77 275 0.0 0.0 0.00 0.00 0.00 85 1014.7
20260905025023 77 275 0.0 0.0 0.00 0.00 0.00 84 1014.6
20260905024522 77 275 0.0 0.0 0.00 0.00 0.00 84 1014.6
20260905024021 77 275 0.0 0.0 0.00 0.00 0.00 84 1014.8
20260905023521 77 275 0.0 0.0 0.00 0.00 0.00 84 1014.7
20260905023021 77 275 0.0 0.0 0.00 0.00 0.00 85 1014.7
20260905022520 77 275 0.0 0.0 0.00 0.00 0.00 84 1014.7
20260905022021 77 275 0.0 0.0 0.00 0.00 0.00 84 1014.9
20260905021527 77 275 0.0 0.0 0.00 0.00 0.00 84 1014.9
20260905021021 77 275 0.0 1.0 0.00 0.00 0.00 84 1014.9
20260905020521 77 275 0.0 2.0 0.00 0.00 0.00 84 1014.9
20260905020035 77 275 1.0 2.0 0.00 0.00 0.00 84 1014.9
20260905015519 78 275 0.0 2.0 0.00 0.00 0.00 82 1014.9
20260905015023 78 275 0.0 0.0 0.00 0.00 0.00 82 1014.9
20260905014520 78 275 0.0 0.0 0.00 0.00 0.00 81 1014.9
20260905014019 78 275 0.0 1.0 0.00 0.00 0.00 81 1014.9
20260905013522 78 275 0.0 1.0 0.00 0.00 0.00 80 1015.1
20260905013029 79 275 0.0 0.0 0.00 0.00 0.00 80 1015.1
20260905012519 79 275 0.0 0.0 0.00 0.00 0.00 80 1015.2
20260905012019 79 275 0.0 0.0 0.00 0.00 0.00 79 1015.3
20260905011531 79 275 0.0 0.0 0.00 0.00 0.00 79 1015.1
20260905011018 79 275 0.0 1.0 0.00 0.00 0.00 79 1015.1
20260905010519 79 275 0.0 1.0 0.00 0.00 0.00 78 1015.1
20260905010018 79 275 0.0 0.0 0.00 0.00 0.00 80 1015.0
20260905005517 80 275 0.0 1.0 0.00 0.00 0.00 80 1015.1
20260905005018 80 275 0.0 1.0 0.00 0.00 0.00 80 1015.1
20260905004518 80 275 0.0 6.0 0.00 0.00 0.00 80 1015.1
20260905004017 80 264 3.0 6.0 0.00 0.00 0.00 80 1015.1
20260905003517 80 246 0.0 0.0 0.00 0.00 0.00 79 1015.2
20260905003022 80 121 0.0 0.0 0.00 0.00 0.00 79 1015.1
20260905002517 80 121 0.0 0.0 0.00 0.00 0.00 78 1014.9
20260905002017 81 121 0.0 0.0 0.00 0.00 0.00 77 1014.9
20260905001520 81 121 0.0 0.0 0.00 0.00 0.00 77 1015.1
20260905001019 81 121 0.0 0.0 0.00 0.00 0.00 76 1015.0
20260905000517 82 121 0.0 0.0 0.00 0.00 0.00 75 1014.9
20260905000017 82 121 0.0 0.0 0.00 0.00 0.00 74 1014.9
20260904235516 82 121 0.0 1.0 0.00 0.00 0.00 75 1014.9
20260904235018 83 126 0.0 2.0 0.00 0.00 0.00 74 1014.8
20260904234519 83 117 0.0 3.0 0.00 0.00 0.00 73 1014.8
20260904234015 83 94 0.0 1.0 0.00 0.00 0.00 73 1014.8
20260904233516 84 17 0.0 3.0 0.00 0.00 0.00 75 1014.8
20260904233016 84 35 0.0 4.0 0.00 0.00 0.00 74 1014.8
20260904232516 84 142 0.0 5.0 0.00 0.00 0.00 74 1014.8
20260904232016 84 222 0.0 0.0 0.00 0.00 0.00 73 1014.8
20260904231515 85 222 0.0 0.0 0.00 0.00 0.00 71 1014.8
20260904231015 85 222 0.0 0.0 0.00 0.00 0.00 70 1014.7
20260904230515 86 222 0.0 0.0 0.00 0.00 0.00 69 1014.4
20260904230015 86 222 0.0 0.0 0.00 0.00 0.00 68 1014.3
20260904225517 87 222 0.0 0.0 0.00 0.00 0.00 65 1014.1
20260904225014 88 222 0.0 0.0 0.00 0.00 0.00 63 1014.1
20260904224514 89 222 0.0 1.0 0.00 0.00 0.00 60 1014.1
20260904224014 91 222 0.0 1.0 0.00 0.00 0.00 55 1014.0
20260904223512 91 205 0.0 2.0 0.00 0.00 0.00 54 1014.1
20260904223013 91 205 0.0 4.0 0.00 0.00 0.00 55 1014.2
20260904222512 91 218 0.0 4.0 0.00 0.00 0.00 56 1014.2
20260904222015 91 217 0.0 4.0 0.00 0.00 0.00 54 1014.2
20260904221512 91 275 0.0 2.0 0.00 0.00 0.00 57 1014.3
20260904221012 90 275 0.0 2.0 0.00 0.00 0.00 62 1014.3
20260904220512 91 275 0.0 4.0 0.00 0.00 0.00 55 1014.3
20260904220012 92 275 0.0 4.0 0.00 0.00 0.00 55 1014.3
20260904215514 92 282 0.0 3.0 0.00 0.00 0.00 55 1014.4
20260904215011 91 245 0.0 3.0 0.00 0.00 0.00 55 1014.4
20260904214511 91 208 0.0 1.0 0.00 0.00 0.00 60 1014.4
20260904214010 92 331 0.0 3.0 0.00 0.00 0.00 53 1014.3
20260904213510 90 220 1.0 3.0 0.00 0.00 0.00 60 1014.3
20260904213014 90 208 0.0 3.0 0.00 0.00 0.00 57 1014.2
20260904212512 91 228 0.0 3.0 0.00 0.00 0.00 57 1014.4
20260904212010 91 223 1.0 3.0 0.00 0.00 0.00 53 1014.2
20260904211509 92 226 0.0 1.0 0.00 0.00 0.00 57 1014.2
20260904211008 92 226 0.0 2.0 0.00 0.00 0.00 54 1014.2
20260904210509 93 228 0.0 2.0 0.00 0.00 0.00 52 1014.4
20260904210011 93 232 0.0 3.0 0.00 0.00 0.00 51 1014.3
20260904205510 92 232 0.0 3.0 0.00 0.00 0.00 52 1014.4
20260904205007 92 285 0.0 2.0 0.00 0.00 0.00 57 1014.4
20260904204507 93 285 0.0 2.0 0.00 0.00 0.00 50 1014.3
20260904204007 93 288 1.0 2.0 0.00 0.00 0.00 50 1014.3
20260904203506 93 296 0.0 5.0 0.00 0.00 0.00 51 1014.4
20260904203010 93 205 2.0 5.0 0.00 0.00 0.00 49 1014.5
20260904202506 93 71 1.0 4.0 0.00 0.00 0.00 55 1014.6
20260904202005 93 129 1.0 4.0 0.00 0.00 0.00 49 1014.5
20260904201505 93 53 0.0 3.0 0.00 0.00 0.00 54 1014.6
20260904201005 93 112 0.0 6.0 0.00 0.00 0.00 50 1014.5
20260904200506 94 227 2.0 6.0 0.00 0.00 0.00 51 1014.5
20260904200004 94 272 0.0 3.0 0.00 0.00 0.00 56 1014.4
20260904195502 94 88 0.0 4.0 0.00 0.00 0.00 57 1014.7
20260904195002 93 95 1.0 4.0 0.00 0.00 0.00 51 1014.7
20260904194503 94 103 0.0 3.0 0.00 0.00 0.00 53 1014.8
20260904194100 94 128 0.0 2.0 0.00 0.00 0.00 52 1014.7